Voltar ao catálogo

CHUANG XIN 16B

CX-16B

AtivoComunicaçõesVLEO
NORAD 53876·PAYLOAD·🇨🇳 China

Lançado Aug 23, 2022 de Xichang Satellite Launch Center

Loading…

Próximas Passagens (próximas 24 horas)

TLE

AtualizadoSource: Space-Track

Época: Sep 14, 2026, 18:19 UTC

1 53876U 22102B   26257.76347036  .00048032  00000-0  72937-3 0  9992
2 53876  28.9891 285.2420 0001891 188.8537 171.2042 15.53198788220613

Acompanhe CHUANG XIN 16B em tempo real com AllMySat

Download on the App Store